Weather History for Lawrence, MA

Change the Weather History Date:

Monday, October 10, 2011

  Actual Average Record
Temperature  
Mean Temperature 68 °F -  
Max Temperature 82 °F 62 °F 85 °F (1939)
Min Temperature 55 °F 41 °F 27 °F (1929)
Cooling Degree Days 3    
Growing Degree Days 18 (Base 50)    
Moisture  
Dew Point 54 °F    
Average Humidity 64    
Maximum Humidity 87    
Minimum Humidity 44    
Precipitation  
Precipitation 0.00 in - - ()
Sea Level Pressure  
Sea Level Pressure 30.17 in    
Wind  
Wind Speed 2 mph (NW)    
Max Wind Speed 13 mph    
Max Gust Speed -    
Visibility 10 miles    
Events      
Averages and records for this station are not official NWS values.
T = Trace of Precipitation, MM = Missing Value Source: NWS Daily Summary

Daily Weather History Graph

Daily Weather History Graph

Search for Another Location

Airport:

Trip Planner

Search our weather history database for the weather conditions in past years. The results will help you decide how hot, cold, wet, or windy it might be!

Date:

Astronomy

Oct. 10, 2011 Rise Set
Actual Time 6:51 AM EDT 6:10 PM EDT
Civil Twilight 6:23 AM EDT 6:39 PM EDT
Nautical Twilight 5:50 AM EDT 7:11 PM EDT
Astronomical Twilight 5:17 AM EDT 7:44 PM EDT
Moon 5:13 PM EDT (10/10) 5:29 AM EDT (10/10)
Length of Visible Light 12h 15m
Length of Day
11h 19m
Waxing Gibbous, 98% of the Moon is Illuminated
Oct 10
Waxing Gibbous
Oct 11
Full
Oct 19
Last Quarter
Oct 26
New
Nov 2
First Quarter

Hourly Weather History & Observations

Time (EDT) Temp. Heat Index Dew Point Humidity Pressure Visibility Wind Dir Wind Speed Gust Speed Precip Events Conditions
12:54 AM 59.0 °F - 53.1 °F 81% 30.22 in 10.0 mi Calm Calm - N/A   Clear
1:54 AM 57.0 °F - 52.0 °F 83% 30.22 in 10.0 mi Calm Calm - N/A   Clear
2:54 AM 57.0 °F - 52.0 °F 83% 30.20 in 10.0 mi Calm Calm - N/A   Clear
3:54 AM 57.0 °F - 53.1 °F 87% 30.20 in 10.0 mi Calm Calm - N/A   Clear
4:54 AM 57.0 °F - 52.0 °F 83% 30.21 in 10.0 mi Calm Calm - N/A   Clear
5:54 AM 55.9 °F - 51.1 °F 84% 30.21 in 10.0 mi Calm Calm - N/A   Clear
6:54 AM 55.0 °F - 51.1 °F 86% 30.20 in 9.0 mi Calm Calm - N/A   Clear
7:54 AM 59.0 °F - 53.1 °F 81% 30.20 in 10.0 mi Calm Calm - N/A   Clear
8:54 AM 64.4 °F - 55.4 °F 73% 30.20 in 10.0 mi Calm Calm - N/A   Clear
9:54 AM 72.0 °F - 55.9 °F 57% 30.20 in 10.0 mi WNW 4.6 mph - N/A   Clear
10:54 AM 75.9 °F - 55.0 °F 48% 30.19 in 10.0 mi WNW 9.2 mph - N/A   Clear
11:54 AM 79.0 °F - 57.0 °F 47% 30.17 in 10.0 mi NW 8.1 mph - N/A   Clear
12:54 PM 80.1 °F 80.4 °F 57.0 °F 45% 30.15 in 10.0 mi WNW 9.2 mph - N/A   Clear
1:54 PM 81.0 °F 81.0 °F 57.0 °F 44% 30.13 in 10.0 mi NW 11.5 mph - N/A   Clear
2:54 PM 81.0 °F 81.1 °F 57.9 °F 45% 30.11 in 10.0 mi West 10.4 mph - N/A   Clear
3:54 PM 81.0 °F 81.0 °F 57.0 °F 44% 30.10 in 10.0 mi NW 12.7 mph - N/A   Clear
4:54 PM 80.1 °F 80.4 °F 57.0 °F 45% 30.10 in 10.0 mi WNW 5.8 mph - N/A   Clear
5:54 PM 77.0 °F - 57.0 °F 50% 30.10 in 10.0 mi NW 3.5 mph - N/A   Clear
6:54 PM 73.0 °F - 57.0 °F 57% 30.12 in 10.0 mi Calm Calm - N/A   Clear
7:54 PM 70.0 °F - 57.0 °F 63% 30.13 in 10.0 mi NW 3.5 mph - N/A   Clear
8:54 PM 69.1 °F - 55.9 °F 63% 30.14 in 10.0 mi NNW 4.6 mph - N/A   Clear
9:54 PM 66.9 °F - 52.0 °F 59% 30.15 in 10.0 mi North 6.9 mph - N/A   Clear
10:54 PM 66.9 °F - 50.0 °F 54% 30.15 in 10.0 mi Calm Calm - N/A   Clear
11:54 PM 62.1 °F - 50.0 °F 65% 30.17 in 10.0 mi Calm Calm - N/A   Clear